Year,Month,Day,Hour,Minute,Value (Times are PST for temperature in C)
2014,04,10,00,00,6.80
2014,04,10,00,01,6.80
2014,04,10,00,02,6.80
2014,04,10,00,03,6.80
2014,04,10,00,04,6.80
2014,04,10,00,05,6.80
2014,04,10,00,06,6.80
2014,04,10,00,07,6.80
2014,04,10,00,08,6.70
2014,04,10,00,09,6.70
2014,04,10,00,10,6.70
2014,04,10,00,11,6.70
2014,04,10,00,12,6.60
2014,04,10,00,13,6.60
2014,04,10,00,14,6.60
2014,04,10,00,15,6.60
2014,04,10,00,16,6.60
2014,04,10,00,17,6.60
2014,04,10,00,18,6.60
2014,04,10,00,19,6.60
2014,04,10,00,20,6.50
2014,04,10,00,21,6.50
2014,04,10,00,22,6.50
2014,04,10,00,23,6.40
2014,04,10,00,24,6.40
2014,04,10,00,25,6.40
2014,04,10,00,26,6.40
2014,04,10,00,27,6.30
2014,04,10,00,28,6.30
2014,04,10,00,29,6.30
2014,04,10,00,30,6.30
2014,04,10,00,31,6.30
2014,04,10,00,32,6.30
2014,04,10,00,33,6.30
2014,04,10,00,34,6.30
2014,04,10,00,35,6.30
2014,04,10,00,36,6.30
2014,04,10,00,37,6.20
2014,04,10,00,38,6.20
2014,04,10,00,39,6.20
2014,04,10,00,40,6.20
2014,04,10,00,41,6.20
2014,04,10,00,42,6.20
2014,04,10,00,43,6.20
2014,04,10,00,44,6.10
2014,04,10,00,45,6.10
2014,04,10,00,46,6.10
2014,04,10,00,47,6.10
2014,04,10,00,48,6.10
2014,04,10,00,49,6.10
2014,04,10,00,50,6.10
2014,04,10,00,51,6.10
2014,04,10,00,52,6.10
2014,04,10,00,53,6.10
2014,04,10,00,54,6.10
2014,04,10,00,55,6.00
2014,04,10,00,56,6.00
2014,04,10,00,57,6.00
2014,04,10,00,58,6.00
2014,04,10,00,59,6.00
2014,04,10,01,00,6.00
2014,04,10,01,01,6.00
2014,04,10,01,02,6.00
2014,04,10,01,03,5.90
2014,04,10,01,04,5.90
2014,04,10,01,05,5.90
2014,04,10,01,06,5.90
2014,04,10,01,07,5.90
2014,04,10,01,08,5.80
2014,04,10,01,09,5.80
2014,04,10,01,10,5.80
2014,04,10,01,11,5.80
2014,04,10,01,12,5.80
2014,04,10,01,13,5.80
2014,04,10,01,14,5.70
2014,04,10,01,15,5.70
2014,04,10,01,16,5.70
2014,04,10,01,17,5.60
2014,04,10,01,18,5.60
2014,04,10,01,19,5.50
2014,04,10,01,20,5.50
2014,04,10,01,21,5.40
2014,04,10,01,22,5.40
2014,04,10,01,23,5.40
2014,04,10,01,24,5.30
2014,04,10,01,25,5.30
2014,04,10,01,26,5.30
2014,04,10,01,27,5.30
2014,04,10,01,28,5.30
2014,04,10,01,29,5.30
2014,04,10,01,30,5.30
2014,04,10,01,31,5.30
2014,04,10,01,32,5.30
2014,04,10,01,33,5.30
2014,04,10,01,34,5.20
2014,04,10,01,35,5.20
2014,04,10,01,36,5.20
2014,04,10,01,37,5.20
2014,04,10,01,38,5.20
2014,04,10,01,39,5.10
2014,04,10,01,40,5.10
2014,04,10,01,41,5.00
2014,04,10,01,42,5.00
2014,04,10,01,43,4.90
2014,04,10,01,44,4.90
2014,04,10,01,45,4.90
2014,04,10,01,46,4.90
2014,04,10,01,47,4.90
2014,04,10,01,48,4.90
2014,04,10,01,49,4.80
2014,04,10,01,50,4.80
2014,04,10,01,51,4.80
2014,04,10,01,52,4.80
2014,04,10,01,53,4.80
2014,04,10,01,54,4.80
2014,04,10,01,55,4.70
2014,04,10,01,56,4.70
2014,04,10,01,57,4.70
2014,04,10,01,58,4.70
2014,04,10,01,59,4.70
2014,04,10,02,00,4.70
2014,04,10,02,01,4.70
2014,04,10,02,02,4.60
2014,04,10,02,03,4.60
2014,04,10,02,04,4.60
2014,04,10,02,05,4.50
2014,04,10,02,06,4.50
2014,04,10,02,07,4.50
2014,04,10,02,08,4.40
2014,04,10,02,09,4.40
2014,04,10,02,10,4.40
2014,04,10,02,11,4.40
2014,04,10,02,12,4.40
2014,04,10,02,13,4.40
2014,04,10,02,14,4.40
2014,04,10,02,15,4.40
2014,04,10,02,16,4.40
2014,04,10,02,17,4.40
2014,04,10,02,18,4.40
2014,04,10,02,19,4.40
2014,04,10,02,20,4.40
2014,04,10,02,21,4.40
2014,04,10,02,22,4.40
2014,04,10,02,23,4.40
2014,04,10,02,24,4.30
2014,04,10,02,25,4.30
2014,04,10,02,26,4.30
2014,04,10,02,27,4.30
2014,04,10,02,28,4.30
2014,04,10,02,29,4.30
2014,04,10,02,30,4.30
2014,04,10,02,31,4.30
2014,04,10,02,32,4.30
2014,04,10,02,33,4.30
2014,04,10,02,34,4.30
2014,04,10,02,35,4.30
2014,04,10,02,36,4.30
2014,04,10,02,37,4.30
2014,04,10,02,38,4.30
2014,04,10,02,39,4.30
2014,04,10,02,40,4.30
2014,04,10,02,41,4.30
2014,04,10,02,42,4.30
2014,04,10,02,43,4.30
2014,04,10,02,44,4.30
2014,04,10,02,45,4.30
2014,04,10,02,46,4.30
2014,04,10,02,47,4.30
2014,04,10,02,48,4.30
2014,04,10,02,49,4.20
2014,04,10,02,50,4.20
2014,04,10,02,51,4.20
2014,04,10,02,52,4.20
2014,04,10,02,53,4.20
2014,04,10,02,54,4.10
2014,04,10,02,55,4.10
2014,04,10,02,56,4.10
2014,04,10,02,57,4.10
2014,04,10,02,58,4.00
2014,04,10,02,59,4.00
2014,04,10,03,00,4.00
2014,04,10,03,01,4.00
2014,04,10,03,02,3.90
2014,04,10,03,03,3.90
2014,04,10,03,04,3.90
2014,04,10,03,05,3.90
2014,04,10,03,06,3.80
2014,04,10,03,07,3.80
2014,04,10,03,08,3.70
2014,04,10,03,09,3.70
2014,04,10,03,10,3.70
2014,04,10,03,11,3.60
2014,04,10,03,12,3.60
2014,04,10,03,13,3.60
2014,04,10,03,14,3.60
2014,04,10,03,15,3.60
2014,04,10,03,16,3.60
2014,04,10,03,17,3.60
2014,04,10,03,18,3.60
2014,04,10,03,19,3.50
2014,04,10,03,20,3.50
2014,04,10,03,21,3.50
2014,04,10,03,22,3.50
2014,04,10,03,23,3.50
2014,04,10,03,24,3.50
2014,04,10,03,25,3.50
2014,04,10,03,26,3.50
2014,04,10,03,27,3.50
2014,04,10,03,28,3.50
2014,04,10,03,29,3.50
2014,04,10,03,30,3.50
2014,04,10,03,31,3.50
2014,04,10,03,32,3.50
2014,04,10,03,33,3.50
2014,04,10,03,34,3.50
2014,04,10,03,35,3.50
2014,04,10,03,36,3.50
2014,04,10,03,37,3.50
2014,04,10,03,38,3.50
2014,04,10,03,39,3.40
2014,04,10,03,40,3.40
2014,04,10,03,41,3.40
2014,04,10,03,42,3.40
2014,04,10,03,43,3.40
2014,04,10,03,44,3.40
2014,04,10,03,45,3.40
2014,04,10,03,46,3.40
2014,04,10,03,47,3.40
2014,04,10,03,48,3.40
2014,04,10,03,49,3.30
2014,04,10,03,50,3.30
2014,04,10,03,51,3.30
2014,04,10,03,52,3.30
2014,04,10,03,53,3.30
2014,04,10,03,54,3.20
2014,04,10,03,55,3.20
2014,04,10,03,56,3.20
2014,04,10,03,57,3.20
2014,04,10,03,58,3.10
2014,04,10,03,59,3.10
2014,04,10,04,00,3.10
2014,04,10,04,01,3.00
2014,04,10,04,02,3.00
2014,04,10,04,03,2.90
2014,04,10,04,04,2.90
2014,04,10,04,05,2.90
2014,04,10,04,06,2.80
2014,04,10,04,07,2.80
2014,04,10,04,08,2.80
2014,04,10,04,09,2.80
2014,04,10,04,10,2.70
2014,04,10,04,11,2.70
2014,04,10,04,12,2.70
2014,04,10,04,13,2.70
2014,04,10,04,14,2.70
2014,04,10,04,15,2.70
2014,04,10,04,16,2.60
2014,04,10,04,17,2.60
2014,04,10,04,18,2.60
2014,04,10,04,19,2.50
2014,04,10,04,20,2.50
2014,04,10,04,21,2.50
2014,04,10,04,22,2.40
2014,04,10,04,23,2.40
2014,04,10,04,24,2.40
2014,04,10,04,25,2.40
2014,04,10,04,26,2.40
2014,04,10,04,27,2.40
2014,04,10,04,28,2.40
2014,04,10,04,29,2.40
2014,04,10,04,30,2.30
2014,04,10,04,31,2.30
2014,04,10,04,32,2.30
2014,04,10,04,33,2.30
2014,04,10,04,34,2.30
2014,04,10,04,35,2.30
2014,04,10,04,36,2.30
2014,04,10,04,37,2.20
2014,04,10,04,38,2.20
2014,04,10,04,39,2.20
2014,04,10,04,40,2.20
2014,04,10,04,41,2.20
2014,04,10,04,42,2.20
2014,04,10,04,43,2.20
2014,04,10,04,44,2.20
2014,04,10,04,45,2.20
2014,04,10,04,46,2.20
2014,04,10,04,47,2.20
2014,04,10,04,48,2.20
2014,04,10,04,49,2.20
2014,04,10,04,50,2.20
2014,04,10,04,51,2.20
2014,04,10,04,52,2.20
2014,04,10,04,53,2.20
2014,04,10,04,54,2.20
2014,04,10,04,55,2.20
2014,04,10,04,56,2.20
2014,04,10,04,57,2.20
2014,04,10,04,58,2.20
2014,04,10,04,59,2.20
2014,04,10,05,00,2.20
2014,04,10,05,01,2.30
2014,04,10,05,02,2.30
2014,04,10,05,03,2.30
2014,04,10,05,04,2.30
2014,04,10,05,05,2.30
2014,04,10,05,06,2.30
2014,04,10,05,07,2.30
2014,04,10,05,08,2.30
2014,04,10,05,09,2.20
2014,04,10,05,10,2.20
2014,04,10,05,11,2.20
2014,04,10,05,12,2.20
2014,04,10,05,13,2.20
2014,04,10,05,14,2.20
2014,04,10,05,15,2.20
2014,04,10,05,16,2.20
2014,04,10,05,17,2.20
2014,04,10,05,18,2.20
2014,04,10,05,19,2.20
2014,04,10,05,20,2.20
2014,04,10,05,21,2.20
2014,04,10,05,22,2.20
2014,04,10,05,23,2.20
2014,04,10,05,24,2.20
2014,04,10,05,25,2.20
2014,04,10,05,26,2.20
2014,04,10,05,27,2.20
2014,04,10,05,28,2.20
2014,04,10,05,29,2.20
2014,04,10,05,30,2.20
2014,04,10,05,31,2.20
2014,04,10,05,32,2.20
2014,04,10,05,33,2.20
2014,04,10,05,34,2.20
2014,04,10,05,35,2.20
2014,04,10,05,36,2.20
2014,04,10,05,37,2.20
2014,04,10,05,38,2.20
2014,04,10,05,39,2.20
2014,04,10,05,40,2.20
2014,04,10,05,41,2.20
2014,04,10,05,42,2.20
2014,04,10,05,43,2.20
2014,04,10,05,44,2.20
2014,04,10,05,45,2.20
2014,04,10,05,46,2.10
2014,04,10,05,47,2.10
2014,04,10,05,48,2.10
2014,04,10,05,49,2.10
2014,04,10,05,50,2.10
2014,04,10,05,51,2.10
2014,04,10,05,52,2.10
2014,04,10,05,53,2.10
2014,04,10,05,54,2.10
2014,04,10,05,55,2.10
2014,04,10,05,56,2.00
2014,04,10,05,57,2.00
2014,04,10,05,58,2.00
2014,04,10,05,59,2.00
2014,04,10,06,00,2.00
2014,04,10,06,01,2.10
2014,04,10,06,02,2.10
2014,04,10,06,03,2.10
2014,04,10,06,04,2.10
2014,04,10,06,05,2.10
2014,04,10,06,06,2.10
2014,04,10,06,07,2.10
2014,04,10,06,08,2.10
2014,04,10,06,09,2.10
2014,04,10,06,10,2.10
2014,04,10,06,11,2.10
2014,04,10,06,12,2.10
2014,04,10,06,13,2.10
2014,04,10,06,14,2.10
2014,04,10,06,15,2.10
2014,04,10,06,16,2.10
2014,04,10,06,17,2.10
2014,04,10,06,18,2.10
2014,04,10,06,19,2.10
2014,04,10,06,20,2.10
2014,04,10,06,21,2.20
2014,04,10,06,22,2.20
2014,04,10,06,23,2.20
2014,04,10,06,24,2.20
2014,04,10,06,25,2.20
2014,04,10,06,26,2.20
2014,04,10,06,27,2.20
2014,04,10,06,28,2.30
2014,04,10,06,29,2.30
2014,04,10,06,30,2.30
2014,04,10,06,31,2.30
2014,04,10,06,32,2.30
2014,04,10,06,33,2.30
2014,04,10,06,34,2.30
2014,04,10,06,35,2.30
2014,04,10,06,36,2.20
2014,04,10,06,37,2.20
2014,04,10,06,38,2.20
2014,04,10,06,39,2.20
2014,04,10,06,40,2.20
2014,04,10,06,41,2.20
2014,04,10,06,42,2.20
2014,04,10,06,43,2.20
2014,04,10,06,44,2.20
2014,04,10,06,45,2.20
2014,04,10,06,46,2.20
2014,04,10,06,47,2.20
2014,04,10,06,48,2.20
2014,04,10,06,49,2.20
2014,04,10,06,50,2.30
2014,04,10,06,51,2.30
2014,04,10,06,52,2.30
2014,04,10,06,53,2.30
2014,04,10,06,54,2.30
2014,04,10,06,55,2.30
2014,04,10,06,56,2.30
2014,04,10,06,57,2.30
2014,04,10,06,58,2.30
2014,04,10,06,59,2.30
2014,04,10,07,00,2.30
2014,04,10,07,01,2.30
2014,04,10,07,02,2.30
2014,04,10,07,03,2.40
2014,04,10,07,04,2.40
2014,04,10,07,05,2.40
2014,04,10,07,06,2.40
2014,04,10,07,07,2.40
2014,04,10,07,08,2.40
2014,04,10,07,09,2.40
2014,04,10,07,10,2.50
2014,04,10,07,11,2.50
2014,04,10,07,12,2.50
2014,04,10,07,13,2.60
2014,04,10,07,14,2.60
2014,04,10,07,15,2.60
2014,04,10,07,16,2.60
2014,04,10,07,17,2.60
2014,04,10,07,18,2.70
2014,04,10,07,19,2.70
2014,04,10,07,20,2.70
2014,04,10,07,21,2.70
2014,04,10,07,22,2.70
2014,04,10,07,23,2.80
2014,04,10,07,24,2.80
2014,04,10,07,25,2.80
2014,04,10,07,26,2.80
2014,04,10,07,27,2.80
2014,04,10,07,28,2.80
2014,04,10,07,29,2.90
2014,04,10,07,30,2.90
2014,04,10,07,31,2.90
2014,04,10,07,32,2.90
2014,04,10,07,33,2.90
2014,04,10,07,34,3.00
2014,04,10,07,35,3.00
2014,04,10,07,36,3.00
2014,04,10,07,37,3.00
2014,04,10,07,38,3.00
2014,04,10,07,39,3.00
2014,04,10,07,40,3.00
2014,04,10,07,41,3.00
2014,04,10,07,42,3.00
2014,04,10,07,43,3.00
2014,04,10,07,44,3.10
2014,04,10,07,45,3.10
2014,04,10,07,46,3.10
2014,04,10,07,47,3.10
2014,04,10,07,48,3.20
2014,04,10,07,49,3.30
2014,04,10,07,50,3.40
2014,04,10,07,51,3.50
2014,04,10,07,52,3.60
2014,04,10,07,53,3.70
2014,04,10,07,54,3.80
2014,04,10,07,55,3.90
2014,04,10,07,56,4.00
2014,04,10,07,57,4.10
2014,04,10,07,58,4.20
2014,04,10,07,59,4.20
2014,04,10,08,00,4.30
2014,04,10,08,01,4.40
2014,04,10,08,02,4.40
2014,04,10,08,03,4.50
2014,04,10,08,04,4.50
2014,04,10,08,05,4.60
2014,04,10,08,06,4.70
2014,04,10,08,07,4.70
2014,04,10,08,08,4.80
2014,04,10,08,09,4.90
2014,04,10,08,10,5.00
2014,04,10,08,11,5.10
2014,04,10,08,12,5.20
2014,04,10,08,13,5.30
2014,04,10,08,14,5.40
2014,04,10,08,15,5.50
2014,04,10,08,16,5.50
2014,04,10,08,17,5.60
2014,04,10,08,18,5.60
2014,04,10,08,19,5.70
2014,04,10,08,20,5.70
2014,04,10,08,21,5.80
2014,04,10,08,22,5.80
2014,04,10,08,23,5.90
2014,04,10,08,24,6.00
2014,04,10,08,25,6.10
2014,04,10,08,26,6.20
2014,04,10,08,27,6.30
2014,04,10,08,28,6.30
2014,04,10,08,29,6.30
2014,04,10,08,30,6.40
2014,04,10,08,31,6.40
2014,04,10,08,32,6.40
2014,04,10,08,33,6.50
2014,04,10,08,34,6.50
2014,04,10,08,35,6.50
2014,04,10,08,36,6.60
2014,04,10,08,37,6.60
2014,04,10,08,38,6.70
2014,04,10,08,39,6.80
2014,04,10,08,40,6.80
2014,04,10,08,41,6.90
2014,04,10,08,42,7.00
2014,04,10,08,43,7.10
2014,04,10,08,44,7.10
2014,04,10,08,45,7.20
2014,04,10,08,46,7.40
2014,04,10,08,47,7.50
2014,04,10,08,48,7.60
2014,04,10,08,49,7.70
2014,04,10,08,50,7.80
2014,04,10,08,51,7.80
2014,04,10,08,52,7.80
2014,04,10,08,53,7.90
2014,04,10,08,54,7.90
2014,04,10,08,55,8.00
2014,04,10,08,56,8.00
2014,04,10,08,57,8.10
2014,04,10,08,58,8.20
2014,04,10,08,59,8.30
2014,04,10,09,00,8.30
2014,04,10,09,01,8.30
2014,04,10,09,02,8.40
2014,04,10,09,03,8.40
2014,04,10,09,04,8.40
2014,04,10,09,05,8.40
2014,04,10,09,06,8.50
2014,04,10,09,07,8.50
2014,04,10,09,08,8.50
2014,04,10,09,09,8.60
2014,04,10,09,10,8.60
2014,04,10,09,11,8.60
2014,04,10,09,12,8.60
2014,04,10,09,13,8.60
2014,04,10,09,14,8.60
2014,04,10,09,15,8.60
2014,04,10,09,16,8.60
2014,04,10,09,17,8.60
2014,04,10,09,18,8.60
2014,04,10,09,19,8.50
2014,04,10,09,20,8.50
2014,04,10,09,21,8.50
2014,04,10,09,22,8.50
2014,04,10,09,23,8.50
2014,04,10,09,24,8.60
2014,04,10,09,25,8.60
2014,04,10,09,26,8.70
2014,04,10,09,27,8.70
2014,04,10,09,28,8.70
2014,04,10,09,29,8.80
2014,04,10,09,30,8.80
2014,04,10,09,31,8.90
2014,04,10,09,32,8.90
2014,04,10,09,33,8.90
2014,04,10,09,34,9.00
2014,04,10,09,35,9.10
2014,04,10,09,36,9.20
2014,04,10,09,37,9.30
2014,04,10,09,38,9.30
2014,04,10,09,39,9.40
2014,04,10,09,40,9.40
2014,04,10,09,41,9.50
2014,04,10,09,42,9.50
2014,04,10,09,43,9.60
2014,04,10,09,44,9.60
2014,04,10,09,45,9.60
2014,04,10,09,46,9.70
2014,04,10,09,47,9.70
2014,04,10,09,48,9.80
2014,04,10,09,49,9.80
2014,04,10,09,50,9.90
2014,04,10,09,51,9.90
2014,04,10,09,52,9.90
2014,04,10,09,53,9.90
2014,04,10,09,54,10.00
2014,04,10,09,55,10.00
2014,04,10,09,56,10.00
2014,04,10,09,57,10.00
2014,04,10,09,58,10.00
2014,04,10,09,59,10.10
2014,04,10,10,00,10.10
2014,04,10,10,01,10.20
2014,04,10,10,02,10.30
2014,04,10,10,03,10.40
2014,04,10,10,04,10.40
2014,04,10,10,05,10.40
2014,04,10,10,06,10.40
2014,04,10,10,07,10.40
2014,04,10,10,08,10.30
2014,04,10,10,09,10.30
2014,04,10,10,10,10.20
2014,04,10,10,11,10.20
2014,04,10,10,12,10.30
2014,04,10,10,13,10.30
2014,04,10,10,14,10.40
2014,04,10,10,15,10.50
2014,04,10,10,16,10.70
2014,04,10,10,17,10.80
2014,04,10,10,18,11.00
2014,04,10,10,19,11.10
2014,04,10,10,20,11.10
2014,04,10,10,21,11.10
2014,04,10,10,22,11.00
2014,04,10,10,23,10.80
2014,04,10,10,24,10.70
2014,04,10,10,25,10.70
2014,04,10,10,26,10.60
2014,04,10,10,27,10.50
2014,04,10,10,28,10.50
2014,04,10,10,29,10.60
2014,04,10,10,30,10.60
2014,04,10,10,31,10.60
2014,04,10,10,32,10.70
2014,04,10,10,33,10.80
2014,04,10,10,34,11.00
2014,04,10,10,35,11.00
2014,04,10,10,36,11.10
2014,04,10,10,37,11.10
2014,04,10,10,38,11.10
2014,04,10,10,39,11.20
2014,04,10,10,40,11.20
2014,04,10,10,41,11.30
2014,04,10,10,42,11.30
2014,04,10,10,43,11.30
2014,04,10,10,44,11.30
2014,04,10,10,45,11.40
2014,04,10,10,46,11.40
2014,04,10,10,47,11.40
2014,04,10,10,48,11.40
2014,04,10,10,49,11.40
2014,04,10,10,50,11.30
2014,04,10,10,51,11.30
2014,04,10,10,52,11.40
2014,04,10,10,53,11.50
2014,04,10,10,54,11.60
2014,04,10,10,55,11.70
2014,04,10,10,56,11.70
2014,04,10,10,57,11.70
2014,04,10,10,58,11.70
2014,04,10,10,59,11.70
2014,04,10,11,00,11.80
2014,04,10,11,01,11.80
2014,04,10,11,02,11.90
2014,04,10,11,03,12.10
2014,04,10,11,04,12.20
2014,04,10,11,05,12.20
2014,04,10,11,06,12.20
2014,04,10,11,07,12.10
2014,04,10,11,08,12.00
2014,04,10,11,09,11.90
2014,04,10,11,10,11.90
2014,04,10,11,11,11.80
2014,04,10,11,12,11.60
2014,04,10,11,13,11.40
2014,04,10,11,14,11.40
2014,04,10,11,15,11.30
2014,04,10,11,16,11.30
2014,04,10,11,17,11.30
2014,04,10,11,18,11.40
2014,04,10,11,19,11.50
2014,04,10,11,20,11.50
2014,04,10,11,21,11.50
2014,04,10,11,22,11.40
2014,04,10,11,23,11.40
2014,04,10,11,24,11.40
2014,04,10,11,25,11.40
2014,04,10,11,26,11.40
2014,04,10,11,27,11.40
2014,04,10,11,28,11.40
2014,04,10,11,29,11.40
2014,04,10,11,30,11.40
2014,04,10,11,31,11.40
2014,04,10,11,32,11.40
2014,04,10,11,33,11.40
2014,04,10,11,34,11.40
2014,04,10,11,35,11.40
2014,04,10,11,36,11.40
2014,04,10,11,37,11.40
2014,04,10,11,38,11.30
2014,04,10,11,39,11.30
2014,04,10,11,40,11.30
2014,04,10,11,41,11.30
2014,04,10,11,42,11.30
2014,04,10,11,43,11.20
2014,04,10,11,44,11.30
2014,04,10,11,45,11.30
2014,04,10,11,46,11.30
2014,04,10,11,47,11.30
2014,04,10,11,48,11.30
2014,04,10,11,49,11.30
2014,04,10,11,50,11.40
2014,04,10,11,51,11.40
2014,04,10,11,52,11.40
2014,04,10,11,53,11.40
2014,04,10,11,54,11.40
2014,04,10,11,55,11.40
2014,04,10,11,56,11.50
2014,04,10,11,57,11.50
2014,04,10,11,58,11.60
2014,04,10,11,59,11.80
2014,04,10,12,00,11.80
2014,04,10,12,01,11.80
2014,04,10,12,02,11.90
2014,04,10,12,03,11.90
2014,04,10,12,04,11.80
2014,04,10,12,05,11.80
2014,04,10,12,06,11.80
2014,04,10,12,07,11.90
2014,04,10,12,08,11.90
2014,04,10,12,09,11.90
2014,04,10,12,10,11.90
2014,04,10,12,11,12.00
2014,04,10,12,12,12.00
2014,04,10,12,13,12.10
2014,04,10,12,14,12.10
2014,04,10,12,15,12.20
2014,04,10,12,16,12.20
2014,04,10,12,17,12.20
2014,04,10,12,18,12.20
2014,04,10,12,19,12.20
2014,04,10,12,20,12.20
2014,04,10,12,21,12.20
2014,04,10,12,22,12.20
2014,04,10,12,23,12.20
2014,04,10,12,24,12.30
2014,04,10,12,25,12.30
2014,04,10,12,26,12.30
2014,04,10,12,27,12.40
2014,04,10,12,28,12.40
2014,04,10,12,29,12.40
2014,04,10,12,30,12.40
2014,04,10,12,31,12.30
2014,04,10,12,32,12.30
2014,04,10,12,33,12.30
2014,04,10,12,34,12.20
2014,04,10,12,35,12.20
2014,04,10,12,36,12.30
2014,04,10,12,37,12.30
2014,04,10,12,38,12.30
2014,04,10,12,39,12.30
2014,04,10,12,40,12.20
2014,04,10,12,41,12.20
2014,04,10,12,42,12.10
2014,04,10,12,43,12.10
2014,04,10,12,44,12.10
2014,04,10,12,45,12.10
2014,04,10,12,46,12.20
2014,04,10,12,47,12.20
2014,04,10,12,48,12.40
2014,04,10,12,49,12.60
2014,04,10,12,50,12.70
2014,04,10,12,51,12.70
2014,04,10,12,52,12.70
2014,04,10,12,53,12.70
2014,04,10,12,54,12.70
2014,04,10,12,55,12.60
2014,04,10,12,56,12.60
2014,04,10,12,57,12.60
2014,04,10,12,58,12.60
2014,04,10,12,59,12.70
2014,04,10,13,00,12.70
2014,04,10,13,01,12.70
2014,04,10,13,02,12.80
2014,04,10,13,03,12.90
2014,04,10,13,04,12.90
2014,04,10,13,05,12.90
2014,04,10,13,06,13.00
2014,04,10,13,07,13.00
2014,04,10,13,08,13.10
2014,04,10,13,09,13.10
2014,04,10,13,10,13.20
2014,04,10,13,11,13.20
2014,04,10,13,12,13.20
2014,04,10,13,13,13.10
2014,04,10,13,14,13.10
2014,04,10,13,15,13.00
2014,04,10,13,16,12.90
2014,04,10,13,17,12.70
2014,04,10,13,18,12.70
2014,04,10,13,19,12.70
2014,04,10,13,20,12.70
2014,04,10,13,21,12.80
2014,04,10,13,22,12.80
2014,04,10,13,23,12.80
2014,04,10,13,24,12.90
2014,04,10,13,25,13.00
2014,04,10,13,26,12.90
2014,04,10,13,27,12.90
2014,04,10,13,28,12.90
2014,04,10,13,29,13.00
2014,04,10,13,30,13.10
2014,04,10,13,31,13.00
2014,04,10,13,32,13.00
2014,04,10,13,33,12.90
2014,04,10,13,34,12.90
2014,04,10,13,35,12.90
2014,04,10,13,36,12.90
2014,04,10,13,37,12.90
2014,04,10,13,38,12.90
2014,04,10,13,39,12.90
2014,04,10,13,40,12.90
2014,04,10,13,41,12.90
2014,04,10,13,42,12.80
2014,04,10,13,43,12.80
2014,04,10,13,44,12.70
2014,04,10,13,45,12.70
2014,04,10,13,46,12.60
2014,04,10,13,47,12.50
2014,04,10,13,48,12.40
2014,04,10,13,49,12.30
2014,04,10,13,50,12.20
2014,04,10,13,51,12.20
2014,04,10,13,52,12.10
2014,04,10,13,53,12.10
2014,04,10,13,54,12.10
2014,04,10,13,55,12.10
2014,04,10,13,56,12.00
2014,04,10,13,57,12.00
2014,04,10,13,58,12.10
2014,04,10,13,59,12.10
2014,04,10,14,00,12.10
2014,04,10,14,01,12.10
2014,04,10,14,02,12.10
2014,04,10,14,03,12.20
2014,04,10,14,04,12.20
2014,04,10,14,05,12.20
2014,04,10,14,06,12.20
2014,04,10,14,07,12.20
2014,04,10,14,08,12.20
2014,04,10,14,09,12.20
2014,04,10,14,10,12.10
2014,04,10,14,11,12.10
2014,04,10,14,12,12.10
2014,04,10,14,13,12.00
2014,04,10,14,14,11.90
2014,04,10,14,15,11.90
2014,04,10,14,16,11.90
2014,04,10,14,17,11.90
2014,04,10,14,18,11.90
2014,04,10,14,19,11.90
2014,04,10,14,20,11.90
2014,04,10,14,21,11.80
2014,04,10,14,22,11.80
2014,04,10,14,23,11.80
2014,04,10,14,24,11.80
2014,04,10,14,25,11.80
2014,04,10,14,26,11.90
2014,04,10,14,27,11.90
2014,04,10,14,28,11.90
2014,04,10,14,29,12.00
2014,04,10,14,30,12.00
2014,04,10,14,31,11.90
2014,04,10,14,32,11.90
2014,04,10,14,33,11.90
2014,04,10,14,34,11.90
2014,04,10,14,35,11.90
2014,04,10,14,36,12.00
2014,04,10,14,37,12.00
2014,04,10,14,38,12.00
2014,04,10,14,39,12.00
2014,04,10,14,40,12.00
2014,04,10,14,41,12.00
2014,04,10,14,42,12.00
2014,04,10,14,43,12.00
2014,04,10,14,44,12.00
2014,04,10,14,45,12.00
2014,04,10,14,46,12.00
2014,04,10,14,47,12.00
2014,04,10,14,48,12.10
2014,04,10,14,49,12.10
2014,04,10,14,50,12.10
2014,04,10,14,51,12.10
2014,04,10,14,52,12.10
2014,04,10,14,53,12.10
2014,04,10,14,54,12.10
2014,04,10,14,55,12.10
2014,04,10,14,56,12.10
2014,04,10,14,57,12.00
2014,04,10,14,58,12.00
2014,04,10,14,59,12.00
2014,04,10,15,00,12.00
2014,04,10,15,01,12.10
2014,04,10,15,02,12.10
2014,04,10,15,03,12.20
2014,04,10,15,04,12.20
2014,04,10,15,05,12.30
2014,04,10,15,06,12.40
2014,04,10,15,07,12.40
2014,04,10,15,08,12.40
2014,04,10,15,09,12.40
2014,04,10,15,10,12.40
2014,04,10,15,11,12.40
2014,04,10,15,12,12.40
2014,04,10,15,13,12.30
2014,04,10,15,14,12.30
2014,04,10,15,15,12.30
2014,04,10,15,16,12.30
2014,04,10,15,17,12.20
2014,04,10,15,18,12.20
2014,04,10,15,19,12.30
2014,04,10,15,20,12.30
2014,04,10,15,21,12.30
2014,04,10,15,22,12.30
2014,04,10,15,23,12.30
2014,04,10,15,24,12.30
2014,04,10,15,25,12.30
2014,04,10,15,26,12.30
2014,04,10,15,27,12.30
2014,04,10,15,28,12.40
2014,04,10,15,29,12.40
2014,04,10,15,30,12.40
2014,04,10,15,31,12.40
2014,04,10,15,32,12.40
2014,04,10,15,33,12.40
2014,04,10,15,34,12.50
2014,04,10,15,35,12.60
2014,04,10,15,36,12.60
2014,04,10,15,37,12.60
2014,04,10,15,38,12.50
2014,04,10,15,39,12.50
2014,04,10,15,40,12.40
2014,04,10,15,41,12.40
2014,04,10,15,42,12.30
2014,04,10,15,43,12.30
2014,04,10,15,44,12.30
2014,04,10,15,45,12.30
2014,04,10,15,46,12.30
2014,04,10,15,47,12.30
2014,04,10,15,48,12.30
2014,04,10,15,49,12.30
2014,04,10,15,50,12.30
2014,04,10,15,51,12.30
2014,04,10,15,52,12.40
2014,04,10,15,53,12.30
2014,04,10,15,54,12.30
2014,04,10,15,55,12.30
2014,04,10,15,56,12.30
2014,04,10,15,57,12.20
2014,04,10,15,58,12.30
2014,04,10,15,59,12.30
2014,04,10,16,00,12.30
2014,04,10,16,01,12.30
2014,04,10,16,02,12.30
2014,04,10,16,03,12.30
2014,04,10,16,04,12.30
2014,04,10,16,05,12.30
2014,04,10,16,06,12.40
2014,04,10,16,07,12.40
2014,04,10,16,08,12.40
2014,04,10,16,09,12.30
2014,04,10,16,10,12.30
2014,04,10,16,11,12.30
2014,04,10,16,12,12.30
2014,04,10,16,13,12.20
2014,04,10,16,14,12.20
2014,04,10,16,15,12.20
2014,04,10,16,16,12.30
2014,04,10,16,17,12.30
2014,04,10,16,18,12.30
2014,04,10,16,19,12.20
2014,04,10,16,20,12.30
2014,04,10,16,21,12.30
2014,04,10,16,22,12.40
2014,04,10,16,23,12.40
2014,04,10,16,24,12.40
2014,04,10,16,25,12.30
2014,04,10,16,26,12.30
2014,04,10,16,27,12.30
2014,04,10,16,28,12.30
2014,04,10,16,29,12.30
2014,04,10,16,30,12.40
2014,04,10,16,31,12.40
2014,04,10,16,32,12.40
2014,04,10,16,33,12.40
2014,04,10,16,34,12.40
2014,04,10,16,35,12.30
2014,04,10,16,36,12.20
2014,04,10,16,37,12.00
2014,04,10,16,38,12.00
2014,04,10,16,39,11.90
2014,04,10,16,40,11.90
2014,04,10,16,41,11.80
2014,04,10,16,42,11.80
2014,04,10,16,43,11.90
2014,04,10,16,44,11.90
2014,04,10,16,45,11.90
2014,04,10,16,46,12.00
2014,04,10,16,47,12.00
2014,04,10,16,48,12.10
2014,04,10,16,49,12.10
2014,04,10,16,50,12.10
2014,04,10,16,51,12.10
2014,04,10,16,52,12.10
2014,04,10,16,53,12.10
2014,04,10,16,54,12.10
2014,04,10,16,55,12.10
2014,04,10,16,56,12.10
2014,04,10,16,57,12.10
2014,04,10,16,58,12.10
2014,04,10,16,59,12.10
2014,04,10,17,00,12.10
2014,04,10,17,01,12.10
2014,04,10,17,02,12.20
2014,04,10,17,03,12.20
2014,04,10,17,04,12.20
2014,04,10,17,05,12.30
2014,04,10,17,06,12.30
2014,04,10,17,07,12.30
2014,04,10,17,08,12.30
2014,04,10,17,09,12.30
2014,04,10,17,10,12.40
2014,04,10,17,11,12.50
2014,04,10,17,12,12.50
2014,04,10,17,13,12.60
2014,04,10,17,14,12.60
2014,04,10,17,15,12.60
2014,04,10,17,16,12.70
2014,04,10,17,17,12.60
2014,04,10,17,18,12.60
2014,04,10,17,19,12.60
2014,04,10,17,20,12.60
2014,04,10,17,21,12.60
2014,04,10,17,22,12.60
2014,04,10,17,23,12.60
2014,04,10,17,24,12.60
2014,04,10,17,25,12.60
2014,04,10,17,26,12.60
2014,04,10,17,27,12.60
2014,04,10,17,28,12.60
2014,04,10,17,29,12.60
2014,04,10,17,30,12.60
2014,04,10,17,31,12.60
2014,04,10,17,32,12.60
2014,04,10,17,33,12.60
2014,04,10,17,34,12.70
2014,04,10,17,35,12.70
2014,04,10,17,36,12.70
2014,04,10,17,37,12.70
2014,04,10,17,38,12.60
2014,04,10,17,39,12.60
2014,04,10,17,40,12.60
2014,04,10,17,41,12.60
2014,04,10,17,42,12.60
2014,04,10,17,43,12.60
2014,04,10,17,44,12.60
2014,04,10,17,45,12.60